Skip Page Navigation
NASA JPL Caltech
NASA Logo - Jet Propulsion Laboratory + View the NASA Portal
+ Center for Near-Earth Object Studies
JPL Home Earth Solar System Stars & Galaxies Technology
JPL Solar System Dynamics
BODIES ORBITS EPHEMERIDES TOOLS PHYSICAL DATA DISCOVERY FAQ SITE MAP
IMPORTANT: The SSD Announcement email list is now available. Major changes are coming in the near future, including possible hostname and/or URL changes. To be notified of such changes, subscribe to this email list.

Please visit this page for more details.


JPL Small-Body Database Browser
Search: [ help ]  
434311 (2004 FV141)
Classification: Main-belt Asteroid          SPK-ID: 2434311
Ephemeris | Orbit Diagram | Orbital Elements | Mission Design | Physical Parameters | Discovery Circumstances | Close-Approach Data ]

[ show orbit diagram ]
Orbital Elements at Epoch 2458600.5 (2019-Apr-27.0) TDB
Reference: JPL 16 (heliocentric ecliptic J2000)
 Element Value Uncertainty (1-sigma)   Units 
e .2248606632053053 9.9587e-08  
a 3.102077845334018 5.6933e-08 au
q 2.404542563717726 3.0827e-07 au
i 13.71650357331997 1.0641e-05 deg
node 208.8610214301493 2.5285e-05 deg
peri 354.2483197299383 3.124e-05 deg
M 270.4013802826687 1.7677e-05 deg
tp 2459097.179555190568
(2020-Sep-04.67955519)
0.00010736 TDB
period 1995.618240913792
5.46
5.4939e-05
1.504e-07
d
yr
n .1803952242063875 4.9663e-09 deg/d
Q 3.79961312695031 6.9735e-08 au
  Orbit Determination Parameters
   # obs. used (total)      141  
   data-arc span      5384 days (14.74 yr)  
   first obs. used      2004-03-17  
   last obs. used      2018-12-13  
   planetary ephem.      DE431  
   SB-pert. ephem.      SB431-N16  
   condition code      0  
   norm. resid. RMS      .64691  
   source      ORB  
   producer      Otto Matic  
   solution date      2019-Jul-13 18:23:13  

Additional Information
 Earth MOID = 1.40169 au 
 Jupiter MOID = 1.17253 au 
 T_jup = 3.139 
[ show covariance matrix ]

Ephemeris | Orbit Diagram | Orbital Elements | Mission Design | Physical Parameters | Discovery Circumstances | Close-Approach Data ]

Physical Parameter Table
Parameter Symbol Value Units Sigma Reference Notes
absolute magnitude H 16.2   n/a MPO392124  

434311 (2004 FV141)          Discovered 2004-Mar-27 by CSS at Catalina
Reference: Last Updated: 2015-06-04

[ show close-approach data ]
Ephemeris | Orbit Diagram | Orbital Elements | Mission Design | Physical Parameters | Discovery Circumstances | Close-Approach Data ]
ABOUT SSD CREDITS/AWARDS PRIVACY/COPYRIGHT GLOSSARY LINKS
FirstGov
(server date/time)  
NASA Home Page
Site Manager:   Ryan S. Park
Webmaster  Alan B. Chamberlin